QPF
0.19 0.15 0.07 0.02 0.01 0.00 0.00 0.00 0.00 0.00 0.00 0.00 0.00 0.00 0.00 0.00 0.00 0.00 0.00 0.00 0.00 0.00 0.00 0.00 0.00 0.00 0.00 0.00 0.00 0.00 0.00 0.00 0.01 0.02 0.02 0.02 0.01 0.00 0.00 0.00 0.00 0.01 0.01 0.01
0.16 0.11 0.05 0.03 0.02 0.01 0.00 0.00 0.00 0.00 0.00 0.00 0.00 0.00 0.00 0.00 0.00 0.00 0.00 0.00 0.00 0.00 0.00 0.00 0.00 0.00 0.00 0.00 0.00 0.00 0.00 0.00 0.00 0.01 0.01 0.01 0.01 0.00 0.00 0.00 0.00 0.00 0.01 0.01
0.12 0.07 0.06 0.06 0.04 0.02 0.01 0.00 0.00 0.00 0.00 0.00 0.00 0.00 0.00 0.00 0.00 0.00 0.00 0.00 0.00 0.00 0.00 0.00 0.00 0.00 0.00 0.00 0.00 0.00 0.00 0.00 0.00 0.00 0.00 0.00 0.00 0.00 0.00 0.00 0.00 0.00 0.00 0.00
0.16 0.08 0.08 0.08 0.05 0.02 0.02 0.00 0.00 0.00 0.00 0.00 0.00 0.00 0.00 0.00 0.00 0.00 0.00 0.00 0.00 0.00 0.00 0.00 0.00 0.00 0.00 0.00 0.00 0.00 0.00 0.00 0.00 0.00 0.00 0.00 0.00 0.00 0.00 0.00 0.00 0.00 0.00 0.00
0.17 0.11 0.09 0.10 0.07 0.04 0.03 0.01 0.01 0.01 0.01 0.00 0.00 0.00 0.00 0.00 0.00 0.00 0.00 0.00 0.00 0.00 0.00 0.00 0.00 0.00 0.00 0.00 0.00 0.00 0.00 0.00 0.00 0.00 0.00 0.00 0.00 0.00 0.00 0.00 0.00 0.00 0.00 0.01
0.10 0.12 0.13 0.12 0.08 0.05 0.02 0.01 0.01 0.01 0.01 0.00 0.00 0.00 0.00 0.00 0.00 0.00 0.00 0.00 0.00 0.00 0.00 0.00 0.00 0.00 0.00 0.00 0.00 0.00 0.00 0.00 0.00 0.00 0.00 0.00 0.00 0.00 0.00 0.00 0.00 0.00 0.00 0.01
0.11 0.13 0.12 0.10 0.08 0.07 0.04 0.03 0.03 0.02 0.01 0.00 0.00 0.00 0.00 0.00 0.00 0.00 0.00 0.00 0.00 0.00 0.00 0.00 0.00 0.00 0.00 0.00 0.00 0.00 0.00 0.00 0.00 0.00 0.00 0.00 0.00 0.00 0.00 0.00 0.00 0.00 0.00 0.01
0.09 0.12 0.10 0.09 0.07 0.06 0.04 0.04 0.03 0.02 0.00 0.00 0.00 0.00 0.00 0.00 0.00 0.00 0.00 0.00 0.00 0.00 0.00 0.00 0.00 0.00 0.00 0.00 0.00 0.00 0.00 0.00 0.00 0.00 0.00 0.00 0.00 0.00 0.00 0.00 0.00 0.00 0.00 0.01
0.04 0.05 0.04 0.04 0.03 0.03 0.03 0.03 0.02 0.01 0.00 0.00 0.00 0.00 0.00 0.00 0.00 0.00 0.00 0.00 0.00 0.00 0.00 0.00 0.00 0.00 0.00 0.00 0.00 0.00 0.00 0.00 0.00 0.00 0.00 0.00 0.00 0.00 0.00 0.00 0.00 0.00 0.00 0.01
0.02 0.02 0.02 0.02 0.02 0.02 0.02 0.02 0.01 0.01 0.00 0.00 0.00 0.00 0.00 0.00 0.00 0.00 0.00 0.00 0.00 0.00 0.00 0.00 0.00 0.00 0.00 0.00 0.00 0.00 0.00 0.00 0.00 0.00 0.00 0.00 0.00 0.00 0.00 0.00 0.00 0.00 0.00 0.00
0.01 0.01 0.01 0.01 0.02 0.01 0.01 0.01 0.01 0.00 0.00 0.00 0.00 0.00 0.00 0.00 0.00 0.00 0.00 0.00 0.00 0.00 0.00 0.00 0.00 0.00 0.00 0.00 0.00 0.00 0.00 0.00 0.00 0.00 0.00 0.00 0.00 0.00 0.00 0.00 0.00 0.00 0.00 0.00
0.00 0.00 0.01 0.01 0.00 0.00 0.00 0.00 0.00 0.00 0.00 0.00 0.00 0.00 0.00 0.00 0.00 0.00 0.00 0.00 0.00 0.00 0.00 0.00 0.00 0.00 0.00 0.00 0.00 0.00 0.00 0.00 0.00 0.00 0.00 0.00 0.00 0.00 0.00 0.00 0.00 0.00 0.00 0.00
0.00 0.00 0.00 0.01 0.00 0.00 0.00 0.00 0.00 0.00 0.00 0.00 0.00 0.00 0.00 0.00 0.00 0.00 0.00 0.00 0.00 0.00 0.00 0.00 0.00 0.00 0.00 0.00 0.00 0.00 0.00 0.00 0.00 0.00 0.00 0.00 0.00 0.00 0.00 0.00 0.00 0.00 0.00 0.00
0.00 0.00 0.00 0.00 0.00 0.00 0.00 0.00 0.00 0.00 0.00 0.00 0.00 0.00 0.00 0.00 0.00 0.00 0.00 0.00 0.00 0.00 0.00 0.00 0.00 0.00 0.00 0.00 0.00 0.00 0.00 0.00 0.00 0.00 0.00 0.00 0.00 0.00 0.00 0.00 0.00 0.00 0.00 0.00
0.00 0.00 0.00 0.00 0.00 0.00 0.00 0.00 0.00 0.00 0.00 0.00 0.00 0.00 0.00 0.00 0.00 0.00 0.00 0.00 0.00 0.00 0.00 0.00 0.00 0.00 0.00 0.00 0.00 0.00 0.00 0.00 0.00 0.00 0.00 0.00 0.00 0.00 0.00 0.00 0.00 0.00 0.00 0.00
0.00 0.00 0.00 0.00 0.00 0.00 0.00 0.00 0.00 0.00 0.00 0.00 0.00 0.00 0.00 0.00 0.00 0.00 0.00 0.00 0.00 0.00 0.00 0.00 0.00 0.00 0.00 0.00 0.00 0.00 0.00 0.00 0.00 0.00 0.00 0.00 0.00 0.00 0.00 0.00 0.00 0.00 0.00 0.01
0.00 0.00 0.00 0.00 0.00 0.00 0.00 0.00 0.00 0.00 0.00 0.00 0.00 0.00 0.00 0.00 0.00 0.00 0.00 0.00 0.00 0.00 0.00 0.00 0.00 0.00 0.00 0.00 0.00 0.00 0.00 0.00 0.00 0.00 0.00 0.00 0.00 0.00 0.00 0.00 0.00 0.01 0.02 0.03
0.00 0.00 0.00 0.00 0.00 0.00 0.00 0.00 0.00 0.00 0.00 0.00 0.00 0.00 0.00 0.00 0.00 0.00 0.00 0.00 0.00 0.00 0.00 0.00 0.00 0.00 0.00 0.00 0.00 0.00 0.00 0.00 0.00 0.00 0.00 0.00 0.00 0.00 0.00 0.00 0.00 0.01 0.02 0.03
0.00 0.01 0.01 0.00 0.00 0.00 0.00 0.00 0.00 0.00 0.00 0.00 0.00 0.00 0.00 0.00 0.00 0.00 0.00 0.00 0.00 0.00 0.00 0.00 0.00 0.00 0.00 0.00 0.00 0.00 0.00 0.00 0.00 0.00 0.00 0.00 0.00 0.00 0.00 0.00 0.00 0.01 0.01 0.02
0.00 0.01 0.01 0.01 0.00 0.00 0.00 0.00 0.00 0.00 0.01 0.00 0.00 0.00 0.00 0.00 0.00 0.00 0.00 0.00 0.00 0.00 0.00 0.00 0.00 0.00 0.00 0.00 0.00 0.00 0.00 0.00 0.00 0.00 0.00 0.00 0.00 0.00 0.00 0.00 0.00 0.00 0.00 0.01
0.01 0.01 0.01 0.01 0.01 0.00 0.00 0.00 0.00 0.01 0.02 0.00 0.00 0.00 0.00 0.00 0.00 0.00 0.00 0.00 0.00 0.00 0.00 0.00 0.00 0.00 0.00 0.00 0.00 0.00 0.00 0.00 0.00 0.00 0.00 0.00 0.00 0.00 0.00 0.00 0.00 0.00 0.00 0.00
0.00 0.00 0.00 0.00 0.01 0.01 0.00 0.00 0.01 0.01 0.01 0.01 0.01 0.00 0.00 0.00 0.00 0.00 0.00 0.00 0.00 0.00 0.00 0.00 0.00 0.00 0.00 0.00 0.00 0.00 0.00 0.00 0.00 0.00 0.00 0.00 0.00 0.00 0.00 0.00 0.00 0.00 0.00 0.00
0.00 0.00 0.00 0.00 0.00 0.00 0.00 0.00 0.01 0.01 0.01 0.01 0.00 0.00 0.00 0.00 0.00 0.00 0.00 0.00 0.00 0.00 0.00 0.00 0.00 0.00 0.00 0.00 0.00 0.00 0.00 0.00 0.00 0.00 0.00 0.00 0.00 0.00 0.00 0.00 0.00 0.00 0.00 0.00
0.00 0.00 0.00 0.01 0.01 0.01 0.00 0.00 0.00 0.00 0.01 0.01 0.00 0.00 0.00 0.00 0.00 0.00 0.00 0.00 0.00 0.00 0.00 0.00 0.00 0.00 0.00 0.00 0.00 0.00 0.00 0.00 0.00 0.00 0.00 0.00 0.00 0.00 0.00 0.00 0.00 0.00 0.00 0.00
0.00 0.00 0.00 0.00 0.01 0.01 0.00 0.00 0.00 0.00 0.00 0.01 0.01 0.00 0.00 0.00 0.00 0.00 0.00 0.00 0.00 0.00 0.00 0.00 0.00 0.00 0.00 0.00 0.00 0.00 0.00 0.00 0.00 0.00 0.00 0.00 0.00 0.00 0.00 0.00 0.00 0.00 0.00 0.00
0.00 0.00 0.01 0.01 0.01 0.00 0.00 0.00 0.00 0.00 0.00 0.00 0.00 0.00 0.00 0.00 0.00 0.00 0.00 0.00 0.00 0.00 0.00 0.00 0.00 0.00 0.00 0.00 0.00 0.00 0.00 0.00 0.00 0.00 0.00 0.00 0.00 0.00 0.00 0.00 0.00 0.00 0.00 0.00
MSLP
1012.05 1012.24 1012.38 1012.47 1012.55 1012.64 1012.81 1013.05 1013.37 1013.74 1014.11 1014.42 1014.61 1014.67 1014.56 1014.32 1013.99 1013.62 1013.26 1012.98 1012.78 1012.69 1012.68 1012.73 1012.79 1012.85 1012.88 1012.88 1012.88 1012.88 1012.92 1013.02 1013.18 1013.40 1013.67 1013.96 1014.24 1014.50 1014.72 1014.90 1015.04 1015.16 1015.28 1015.42
1012.39 1012.51 1012.56 1012.55 1012.54 1012.56 1012.67 1012.89 1013.21 1013.59 1013.99 1014.33 1014.58 1014.67 1014.61 1014.41 1014.12 1013.79 1013.47 1013.22 1013.07 1013.00 1013.02 1013.08 1013.15 1013.20 1013.21 1013.19 1013.15 1013.11 1013.11 1013.15 1013.26 1013.42 1013.62 1013.84 1014.06 1014.25 1014.41 1014.54 1014.65 1014.75 1014.87 1015.01
1012.79 1012.89 1012.89 1012.82 1012.74 1012.69 1012.74 1012.90 1013.18 1013.54 1013.92 1014.26 1014.52 1014.64 1014.61 1014.45 1014.21 1013.93 1013.68 1013.49 1013.38 1013.36 1013.42 1013.50 1013.59 1013.64 1013.64 1013.60 1013.53 1013.46 1013.40 1013.39 1013.42 1013.50 1013.62 1013.76 1013.89 1014.00 1014.10 1014.17 1014.24 1014.31 1014.42 1014.56
1013.19 1013.32 1013.32 1013.24 1013.13 1013.04 1013.03 1013.13 1013.34 1013.63 1013.96 1014.27 1014.49 1014.59 1014.58 1014.45 1014.25 1014.03 1013.84 1013.72 1013.68 1013.72 1013.82 1013.94 1014.05 1014.11 1014.11 1014.06 1013.96 1013.84 1013.74 1013.66 1013.62 1013.62 1013.65 1013.69 1013.73 1013.76 1013.78 1013.80 1013.82 1013.87 1013.96 1014.09
1013.52 1013.73 1013.79 1013.74 1013.64 1013.54 1013.49 1013.54 1013.67 1013.89 1014.13 1014.35 1014.51 1014.57 1014.53 1014.41 1014.24 1014.07 1013.94 1013.89 1013.92 1014.03 1014.19 1014.35 1014.48 1014.56 1014.56 1014.50 1014.37 1014.22 1014.07 1013.92 1013.81 1013.73 1013.67 1013.63 1013.59 1013.55 1013.50 1013.46 1013.45 1013.47 1013.53 1013.63
1013.72 1014.03 1014.19 1014.22 1014.16 1014.09 1014.03 1014.04 1014.11 1014.24 1014.38 1014.50 1014.57 1014.55 1014.47 1014.32 1014.17 1014.03 1013.96 1013.98 1014.08 1014.26 1014.47 1014.68 1014.85 1014.95 1014.96 1014.89 1014.75 1014.56 1014.36 1014.16 1013.99 1013.84 1013.71 1013.60 1013.50 1013.40 1013.30 1013.23 1013.18 1013.17 1013.20 1013.27
1013.75 1014.17 1014.43 1014.56 1014.59 1014.56 1014.53 1014.53 1014.55 1014.60 1014.65 1014.67 1014.63 1014.53 1014.38 1014.20 1014.04 1013.92 1013.90 1013.97 1014.14 1014.39 1014.67 1014.94 1015.15 1015.27 1015.30 1015.23 1015.07 1014.86 1014.63 1014.39 1014.17 1013.97 1013.80 1013.64 1013.50 1013.36 1013.25 1013.15 1013.08 1013.04 1013.04 1013.08
1013.62 1014.12 1014.47 1014.70 1014.81 1014.86 1014.88 1014.89 1014.90 1014.90 1014.87 1014.79 1014.66 1014.48 1014.26 1014.03 1013.86 1013.76 1013.76 1013.89 1014.12 1014.43 1014.78 1015.10 1015.36 1015.53 1015.58 1015.52 1015.36 1015.14 1014.89 1014.63 1014.38 1014.16 1013.96 1013.79 1013.64 1013.50 1013.38 1013.28 1013.20 1013.14 1013.11 1013.10
1013.35 1013.89 1014.31 1014.60 1014.80 1014.93 1015.02 1015.07 1015.08 1015.06 1014.98 1014.84 1014.64 1014.38 1014.10 1013.84 1013.64 1013.55 1013.58 1013.75 1014.04 1014.41 1014.82 1015.20 1015.51 1015.72 1015.81 1015.77 1015.63 1015.42 1015.17 1014.91 1014.66 1014.44 1014.26 1014.10 1013.96 1013.84 1013.73 1013.64 1013.56 1013.49 1013.43 1013.38
1013.01 1013.54 1013.98 1014.32 1014.59 1014.79 1014.94 1015.04 1015.09 1015.07 1014.98 1014.80 1014.55 1014.25 1013.92 1013.63 1013.42 1013.32 1013.38 1013.58 1013.91 1014.34 1014.80 1015.25 1015.62 1015.87 1016.01 1016.01 1015.91 1015.73 1015.50 1015.27 1015.04 1014.85 1014.70 1014.57 1014.47 1014.38 1014.30 1014.23 1014.15 1014.07 1013.98 1013.89
1012.67 1013.16 1013.58 1013.94 1014.25 1014.50 1014.71 1014.86 1014.95 1014.96 1014.87 1014.68 1014.41 1014.08 1013.73 1013.42 1013.20 1013.11 1013.17 1013.40 1013.77 1014.24 1014.75 1015.25 1015.67 1015.99 1016.18 1016.24 1016.19 1016.06 1015.88 1015.70 1015.52 1015.38 1015.27 1015.19 1015.14 1015.10 1015.05 1015.00 1014.92 1014.83 1014.73 1014.60
1012.40 1012.83 1013.22 1013.57 1013.88 1014.17 1014.41 1014.61 1014.73 1014.76 1014.68 1014.50 1014.23 1013.89 1013.53 1013.22 1013.00 1012.91 1012.99 1013.24 1013.63 1014.13 1014.68 1015.22 1015.69 1016.07 1016.32 1016.45 1016.47 1016.41 1016.30 1016.18 1016.07 1015.99 1015.94 1015.92 1015.92 1015.92 1015.90 1015.87 1015.80 1015.70 1015.58 1015.42
1012.25 1012.62 1012.96 1013.29 1013.59 1013.88 1014.13 1014.34 1014.48 1014.52 1014.45 1014.28 1014.01 1013.68 1013.33 1013.02 1012.81 1012.74 1012.83 1013.09 1013.49 1014.01 1014.59 1015.16 1015.68 1016.11 1016.42 1016.62 1016.72 1016.74 1016.71 1016.67 1016.64 1016.63 1016.65 1016.69 1016.73 1016.77 1016.78 1016.76 1016.70 1016.60 1016.46 1016.29
1012.23 1012.56 1012.87 1013.16 1013.43 1013.69 1013.92 1014.11 1014.23 1014.26 1014.19 1014.02 1013.75 1013.44 1013.11 1012.82 1012.63 1012.58 1012.69 1012.96 1013.38 1013.91 1014.50 1015.10 1015.65 1016.12 1016.50 1016.77 1016.94 1017.04 1017.11 1017.15 1017.19 1017.25 1017.33 1017.42 1017.51 1017.57 1017.61 1017.61 1017.55 1017.45 1017.32 1017.15
1012.33 1012.64 1012.92 1013.16 1013.39 1013.60 1013.77 1013.91 1013.98 1013.98 1013.88 1013.70 1013.45 1013.15 1012.86 1012.61 1012.46 1012.44 1012.58 1012.87 1013.30 1013.84 1014.44 1015.05 1015.63 1016.14 1016.56 1016.89 1017.13 1017.31 1017.45 1017.57 1017.69 1017.81 1017.94 1018.07 1018.20 1018.29 1018.35 1018.36 1018.32 1018.23 1018.11 1017.95
1012.50 1012.80 1013.05 1013.26 1013.43 1013.56 1013.65 1013.71 1013.71 1013.65 1013.52 1013.32 1013.08 1012.82 1012.57 1012.38 1012.29 1012.32 1012.51 1012.83 1013.28 1013.83 1014.44 1015.06 1015.65 1016.18 1016.64 1017.01 1017.31 1017.56 1017.76 1017.94 1018.12 1018.29 1018.47 1018.63 1018.78 1018.90 1018.97 1019.00 1018.98 1018.92 1018.82 1018.69
1012.65 1012.96 1013.19 1013.35 1013.45 1013.50 1013.50 1013.46 1013.38 1013.25 1013.08 1012.88 1012.65 1012.44 1012.26 1012.15 1012.14 1012.25 1012.50 1012.87 1013.36 1013.93 1014.54 1015.16 1015.76 1016.30 1016.77 1017.18 1017.51 1017.80 1018.05 1018.28 1018.49 1018.70 1018.91 1019.10 1019.26 1019.40 1019.49 1019.54 1019.55 1019.52 1019.45 1019.37
1012.74 1013.04 1013.24 1013.35 1013.38 1013.34 1013.26 1013.13 1012.97 1012.79 1012.59 1012.39 1012.21 1012.06 1011.96 1011.95 1012.04 1012.25 1012.58 1013.02 1013.55 1014.14 1014.76 1015.39 1015.98 1016.52 1017.00 1017.41 1017.77 1018.07 1018.35 1018.60 1018.84 1019.07 1019.29 1019.49 1019.67 1019.81 1019.93 1020.00 1020.04 1020.05 1020.03 1019.99
1012.69 1012.96 1013.12 1013.18 1013.15 1013.05 1012.89 1012.70 1012.49 1012.28 1012.09 1011.92 1011.79 1011.73 1011.74 1011.84 1012.04 1012.35 1012.77 1013.27 1013.85 1014.47 1015.10 1015.72 1016.31 1016.84 1017.31 1017.72 1018.08 1018.39 1018.67 1018.93 1019.18 1019.41 1019.63 1019.84 1020.02 1020.18 1020.31 1020.40 1020.47 1020.52 1020.54 1020.55
1012.48 1012.71 1012.82 1012.84 1012.76 1012.62 1012.43 1012.21 1012.00 1011.80 1011.64 1011.53 1011.49 1011.52 1011.64 1011.85 1012.16 1012.57 1013.06 1013.62 1014.23 1014.87 1015.52 1016.13 1016.71 1017.23 1017.69 1018.09 1018.44 1018.75 1019.03 1019.28 1019.52 1019.75 1019.96 1020.16 1020.34 1020.50 1020.64 1020.76 1020.86 1020.94 1021.00 1021.04
1012.11 1012.28 1012.35 1012.33 1012.24 1012.10 1011.92 1011.73 1011.56 1011.42 1011.33 1011.30 1011.35 1011.48 1011.69 1012.00 1012.39 1012.87 1013.41 1014.01 1014.65 1015.30 1015.94 1016.55 1017.11 1017.62 1018.07 1018.47 1018.81 1019.11 1019.38 1019.62 1019.85 1020.06 1020.26 1020.45 1020.63 1020.79 1020.94 1021.07 1021.19 1021.29 1021.37 1021.44
1011.62 1011.72 1011.76 1011.74 1011.67 1011.56 1011.44 1011.33 1011.25 1011.20 1011.21 1011.27 1011.41 1011.62 1011.91 1012.27 1012.71 1013.21 1013.77 1014.38 1015.01 1015.65 1016.27 1016.87 1017.42 1017.93 1018.37 1018.77 1019.11 1019.41 1019.67 1019.91 1020.13 1020.33 1020.52 1020.70 1020.87 1021.03 1021.18 1021.32 1021.44 1021.55 1021.66 1021.74
1011.07 1011.12 1011.14 1011.14 1011.13 1011.11 1011.09 1011.09 1011.13 1011.19 1011.30 1011.46 1011.67 1011.93 1012.24 1012.62 1013.05 1013.53 1014.06 1014.63 1015.23 1015.83 1016.44 1017.02 1017.56 1018.07 1018.52 1018.93 1019.28 1019.59 1019.86 1020.11 1020.32 1020.52 1020.71 1020.88 1021.04 1021.20 1021.35 1021.49 1021.62 1021.74 1021.84 1021.93
1010.52 1010.55 1010.59 1010.65 1010.72 1010.81 1010.92 1011.06 1011.22 1011.40 1011.61 1011.83 1012.07 1012.34 1012.64 1012.97 1013.34 1013.76 1014.22 1014.72 1015.25 1015.81 1016.37 1016.93 1017.48 1017.99 1018.46 1018.89 1019.27 1019.61 1019.90 1020.16 1020.39 1020.59 1020.78 1020.96 1021.12 1021.28 1021.43 1021.57 1021.70 1021.82 1021.93 1022.02
1010.07 1010.11 1010.19 1010.33 1010.51 1010.72 1010.97 1011.24 1011.52 1011.79 1012.06 1012.32 1012.56 1012.79 1013.02 1013.27 1013.54 1013.85 1014.20 1014.60 1015.05 1015.55 1016.07 1016.62 1017.16 1017.69 1018.19 1018.65 1019.07 1019.45 1019.77 1020.06 1020.31 1020.54 1020.74 1020.93 1021.10 1021.27 1021.43 1021.58 1021.71 1021.84 1021.94 1022.03
1009.80 1009.87 1010.02 1010.25 1010.53 1010.87 1011.23 1011.61 1011.97 1012.31 1012.60 1012.85 1013.05 1013.21 1013.34 1013.47 1013.61 1013.79 1014.02 1014.32 1014.68 1015.11 1015.59 1016.12 1016.66 1017.21 1017.75 1018.25 1018.71 1019.13 1019.50 1019.82 1020.10 1020.36 1020.59 1020.79 1020.99 1021.18 1021.35 1021.51 1021.66 1021.79 1021.90 1021.99
Thickness
5529 5534 5543 5557 5569 5580 5582 5581 5585 5593 5604 5604 5604 5611 5623 5636 5641 5644 5651 5659 5666 5672 5679 5683 5686 5688 5689 5690 5691 5692 5693 5695 5695 5693 5691 5689 5688 5688 5687 5686 5684 5682 5679 5677
5523 5535 5553 5563 5566 5574 5579 5579 5584 5586 5593 5598 5598 5606 5620 5630 5637 5642 5647 5653 5659 5663 5667 5672 5675 5676 5677 5678 5680 5682 5684 5685 5686 5686 5685 5685 5684 5684 5685 5683 5681 5678 5674 5670
5526 5542 5554 5559 5561 5565 5573 5580 5583 5579 5582 5589 5591 5596 5611 5623 5631 5636 5640 5646 5651 5655 5657 5660 5662 5664 5665 5665 5667 5670 5672 5674 5676 5677 5677 5677 5677 5677 5677 5676 5675 5674 5670 5666
5525 5540 5548 5552 5556 5562 5564 5580 5584 5578 5572 5571 5580 5580 5607 5613 5617 5624 5630 5635 5640 5645 5647 5649 5651 5652 5653 5654 5657 5659 5662 5665 5667 5668 5667 5665 5664 5664 5666 5667 5668 5668 5666 5663
5523 5534 5542 5545 5552 5560 5561 5573 5574 5573 5568 5572 5578 5576 5597 5608 5608 5614 5621 5627 5632 5636 5638 5639 5641 5643 5644 5645 5647 5649 5653 5655 5657 5658 5658 5657 5656 5657 5658 5659 5659 5659 5659 5658
5522 5529 5534 5541 5547 5554 5559 5560 5559 5560 5558 5555 5577 5576 5590 5602 5610 5612 5617 5620 5624 5627 5629 5631 5633 5635 5635 5636 5638 5640 5643 5645 5647 5648 5648 5648 5647 5647 5647 5647 5647 5648 5649 5649
5517 5519 5525 5534 5536 5541 5550 5543 5536 5536 5538 5552 5583 5581 5593 5610 5616 5614 5613 5614 5617 5619 5620 5621 5623 5624 5625 5626 5628 5630 5632 5633 5635 5636 5637 5638 5638 5638 5638 5637 5637 5638 5637 5637
5517 5516 5520 5527 5534 5537 5542 5545 5541 5541 5545 5558 5569 5572 5589 5606 5610 5610 5609 5608 5610 5612 5612 5613 5614 5615 5615 5617 5617 5619 5620 5622 5624 5625 5626 5627 5628 5628 5628 5628 5628 5627 5627 5626
5523 5516 5519 5525 5532 5537 5536 5538 5547 5545 5557 5558 5559 5575 5578 5593 5595 5597 5598 5600 5602 5604 5605 5605 5606 5605 5605 5606 5606 5608 5609 5611 5612 5614 5615 5616 5616 5617 5617 5617 5617 5616 5615 5614
5531 5518 5519 5522 5527 5530 5536 5541 5536 5535 5543 5553 5567 5571 5571 5577 5582 5587 5591 5593 5596 5597 5597 5597 5596 5596 5595 5596 5596 5598 5599 5600 5601 5602 5603 5604 5604 5604 5605 5605 5604 5602 5601 5599
5534 5521 5517 5521 5524 5526 5530 5533 5537 5539 5545 5544 5555 5565 5589 5583 5583 5583 5586 5589 5590 5590 5588 5587 5587 5586 5587 5587 5587 5587 5588 5588 5588 5589 5590 5590 5591 5591 5591 5590 5589 5587 5585 5583
5537 5527 5519 5522 5527 5531 5535 5538 5537 5533 5538 5544 5542 5555 5584 5582 5581 5581 5581 5583 5583 5582 5580 5579 5578 5578 5578 5577 5577 5577 5577 5577 5577 5578 5578 5578 5577 5577 5576 5575 5573 5572 5569 5566
5536 5524 5512 5512 5516 5523 5529 5536 5540 5537 5532 5537 5540 5551 5573 5574 5573 5575 5576 5577 5577 5575 5574 5572 5571 5570 5569 5568 5568 5567 5566 5566 5567 5567 5566 5565 5564 5563 5562 5560 5558 5556 5553 5549
5535 5527 5523 5523 5529 5525 5524 5531 5535 5529 5519 5534 5544 5551 5561 5565 5566 5569 5571 5573 5571 5570 5567 5565 5563 5561 5560 5560 5559 5557 5556 5556 5556 5555 5554 5552 5551 5550 5548 5546 5544 5542 5538 5533
5529 5522 5526 5527 5531 5531 5529 5530 5531 5525 5530 5532 5548 5553 5558 5562 5565 5568 5569 5569 5568 5565 5562 5558 5555 5553 5552 5551 5549 5548 5547 5546 5546 5544 5542 5540 5539 5537 5536 5534 5531 5528 5524 5520
5526 5521 5521 5519 5526 5527 5526 5531 5532 5530 5533 5536 5541 5546 5560 5564 5565 5564 5565 5565 5564 5561 5556 5552 5549 5546 5544 5541 5540 5539 5538 5537 5536 5534 5532 5530 5528 5527 5524 5522 5519 5515 5511 5506
5521 5518 5513 5516 5524 5520 5516 5534 5535 5536 5540 5538 5537 5546 5556 5558 5560 5561 5560 5561 5560 5555 5549 5545 5541 5538 5535 5533 5533 5531 5529 5528 5526 5524 5522 5521 5518 5516 5513 5511 5507 5503 5498 5494
5520 5516 5512 5515 5514 5503 5535 5547 5547 5542 5543 5545 5549 5553 5556 5557 5557 5557 5557 5556 5551 5547 5542 5538 5533 5530 5528 5527 5525 5524 5523 5520 5518 5515 5513 5511 5509 5506 5502 5499 5496 5491 5487 5483
5520 5516 5512 5511 5515 5525 5540 5542 5543 5542 5544 5550 5549 5551 5553 5554 5551 5549 5548 5547 5542 5538 5534 5529 5526 5524 5522 5520 5518 5517 5514 5512 5509 5507 5504 5502 5499 5496 5493 5489 5486 5482 5478 5473
5514 5514 5509 5511 5510 5519 5538 5542 5546 5543 5542 5552 5551 5549 5549 5548 5542 5542 5537 5535 5531 5528 5524 5521 5519 5517 5515 5513 5512 5509 5506 5503 5500 5498 5495 5493 5490 5487 5484 5480 5477 5473 5469 5465
5503 5504 5502 5506 5509 5523 5537 5539 5539 5532 5539 5544 5546 5545 5545 5542 5539 5534 5532 5528 5524 5520 5518 5516 5513 5510 5508 5507 5505 5501 5498 5494 5492 5490 5487 5484 5481 5478 5476 5473 5470 5466 5463 5458
5503 5503 5506 5509 5505 5516 5532 5534 5533 5534 5537 5538 5538 5538 5537 5534 5530 5529 5526 5522 5518 5514 5511 5509 5505 5502 5501 5500 5497 5493 5489 5487 5484 5482 5479 5476 5474 5472 5469 5466 5463 5460 5456 5452
5511 5513 5515 5515 5517 5528 5532 5532 5531 5533 5532 5531 5530 5531 5530 5528 5526 5524 5520 5516 5513 5509 5506 5504 5500 5497 5494 5493 5490 5486 5483 5480 5478 5475 5472 5470 5468 5466 5463 5460 5457 5454 5451 5446
5515 5519 5517 5518 5524 5527 5527 5527 5526 5526 5525 5524 5524 5523 5524 5524 5522 5520 5516 5512 5509 5506 5502 5500 5496 5493 5489 5488 5486 5482 5479 5476 5473 5470 5467 5465 5462 5459 5457 5454 5451 5447 5443 5439
5516 5514 5512 5514 5520 5522 5523 5522 5520 5518 5517 5516 5516 5516 5517 5517 5517 5515 5512 5509 5506 5503 5499 5496 5493 5490 5487 5484 5482 5478 5475 5472 5468 5465 5462 5459 5457 5453 5449 5446 5442 5439 5434 5432
5510 5510 5508 5511 5518 5518 5517 5515 5514 5511 5510 5509 5508 5508 5509 5510 5510 5510 5508 5506 5502 5498 5495 5492 5490 5488 5484 5481 5477 5474 5471 5468 5464 5460 5456 5453 5450 5447 5443 5438 5434 5432 5429 5425